Home   Weather   Vicálvaro   Past weeks
Flag for Spain

Past Weather in Vicálvaro, Madrid, Spain — Yesterday and Last 2 Weeks

Now
86 °F

Passing clouds.


Feels Like: 83 °F
Forecast: 92 / 65 °F
Wind: 5 mph from Southwest

Location: Madrid / Cuatro Vientos

Current Time: Aug 3, 2020 at 2:29:41 pm

Latest Report: Aug 3, 2020 at 1:30 pm


Visibility: N/A

Pressure: 30.04 "Hg

Humidity: 27%

Dew Point: 48 °F

Location of VicálvaroLocation

Past Weather in Vicálvaro — Graph

°F

Vicálvaro Temperature Yesterday

Maximum temperature yesterday: 99 °F (at 4:30 pm)
Minimum temperature yesterday: 73 °F (at 4:30 am)
Average temperature yesterday: 85 °F

High & Low Weather Summary for the Past Weeks

 TemperatureHumidityPressure
High104 °F (Jul 26, 4:00 pm)78% (Jul 22, 6:00 am)30.12 "Hg (Jul 22, 6:00 am)
Low68 °F (Jul 20, 7:00 am)8% (Aug 1, 4:00 pm)29.89 "Hg (Jul 30, 6:00 pm)
Average87 °F30%30.03 "Hg
* Reported Jul 19 1:00 pm — Aug 3 1:00 pm, Vicálvaro. Weather by CustomWeather, © 2020

Note: Actual official high and low records may vary slightly from our data, if they occured in-between our weather recording intervals... More about our weather records

Vicálvaro Weather History for the Previous 24 Hours

Scroll right to see more
 ConditionsComfort  
Time TempWeatherWind HumidityBarometerVisibility
1:00 pm
Mon, Aug 3
84 °FSunny.2 mph29%30.07 "Hg10 mi
12:30 pm82 °FSunny.2 mph30%30.07 "Hg10 mi
12:00 pm82 °FSunny.3 mph30%30.07 "Hg10 mi
11:30 am79 °FPassing clouds.5 mph37%30.07 "HgN/A
11:00 am77 °FPassing clouds.3 mph36%30.07 "HgN/A
10:30 am77 °FSunny.3 mph36%30.07 "Hg10 mi
10:00 am75 °FPassing clouds.5 mph39%30.07 "HgN/A
9:30 am73 °FPassing clouds.5 mph44%30.07 "HgN/A
9:00 am72 °FPassing clouds.5 mph44%30.04 "HgN/A
8:30 am72 °FPassing clouds.3 mph47%30.04 "HgN/A
8:00 am70 °FPassing clouds.5 mph50%30.04 "HgN/A
7:30 am70 °FPassing clouds.6 mph50%30.04 "HgN/A
7:00 am70 °FPassing clouds.6 mph50%30.04 "HgN/A
6:30 am70 °FClear.5 mph50%30.04 "Hg10 mi
6:00 am70 °FPassing clouds.5 mph53%30.04 "HgN/A
5:30 am70 °FPassing clouds.6 mph53%30.04 "HgN/A
5:00 am72 °FPassing clouds.6 mph50%30.01 "HgN/A
4:30 am72 °FMild.6 mph50%30.04 "Hg6 mi
4:00 am72 °FClear.5 mph50%30.04 "Hg10 mi
3:30 am73 °FPassing clouds.6 mph44%30.04 "HgN/A
3:00 am73 °FPassing clouds.6 mph44%30.04 "HgN/A
2:30 am75 °FPassing clouds.7 mph39%30.04 "HgN/A
1:30 am77 °FPassing clouds.8 mph39%30.04 "HgN/A
1:00 am77 °FPassing clouds.6 mph36%30.04 "HgN/A
12:30 am79 °FPleasantly warm.8 mph37%30.04 "Hg6 mi
12:00 am79 °FPassing clouds.6 mph37%30.04 "HgN/A
11:30 pm
Sun, Aug 2
81 °FPassing clouds.6 mph37%30.01 "HgN/A
11:00 pm82 °FPassing clouds.6 mph35%30.01 "HgN/A
10:30 pm82 °FPassing clouds.8 mph35%30.01 "HgN/A
10:00 pm84 °FPassing clouds.7 mph33%29.98 "HgN/A
9:30 pm86 °FPassing clouds.9 mph33%29.98 "HgN/A
9:00 pm88 °FPassing clouds.9 mph27%29.98 "HgN/A
8:30 pm88 °FPassing clouds.10 mph25%29.95 "HgN/A
8:00 pm91 °FPassing clouds.12 mph21%29.95 "HgN/A
7:30 pm91 °FPassing clouds.10 mph20%29.95 "HgN/A
7:00 pm91 °FPassing clouds.9 mph23%29.95 "HgN/A
6:30 pm93 °FPassing clouds.12 mph20%29.98 "HgN/A
6:00 pm95 °FPassing clouds.12 mph18%29.98 "HgN/A
5:30 pm97 °FPassing clouds.14 mph14%29.98 "HgN/A
5:00 pm99 °FPassing clouds.12 mph12%29.98 "HgN/A
4:30 pm99 °FPassing clouds.12 mph11%29.98 "HgN/A
4:00 pm97 °FPassing clouds.9 mph17%29.98 "HgN/A
3:00 pm97 °FSunny.7 mph18%30.01 "Hg10 mi
2:30 pm95 °FSunny.6 mph20%30.04 "Hg10 mi
2:00 pm93 °FSunny.5 mph20%30.04 "Hg10 mi
Weather by CustomWeather, © 2020

See weather overview